User: anonymous   Login
Location: Caltech
(34.1382°N, 118.1253°W)
Time: 18:52:02
(UTC-07:00)
Language:

Cosmos 1833 Rocket - Orbit

View from above orbital plane
View from above orbital plane
View from above satellite
View from above satellite

Ground track
Ground track

The orbit data is extracted from the following two-line orbital elements,

1 17590U 87027B   15242.84495589  .00000149  00000-0  98684-4 0  9995
2 17590 071.0018 092.0246 0006766 237.5891 122.4579 14.16701820471163
Epoch (UTC): 30 August 2015 20:16:44
Eccentricity: 0.0006766
inclination: 71.0018°
perigee height: 831 km
apogee height: 841 km
right ascension of ascending node: 92.0246°
argument of perigee: 237.5891°
revolutions per day: 14.16701820
mean anomaly at epoch: 122.4579°
orbit number at epoch: 47116

The dashed part of the orbit path shows where the satellite is in the earth's shadow,  

DLR